Weather History for Tampa, FL

Change the Weather History Date:

Monday, November 12, 2012

  Actual Average Record
Temperature  
Mean Temperature 74 °F 70 °F  
Max Temperature 83 °F 79 °F 88 °F (2002)
Min Temperature 64 °F 61 °F 38 °F (1894)
Degree Days  
Heating Degree Days 0 1  
Month to date heating degree days 11 10  
Since 1 July heating degree days 17 14  
Cooling Degree Days 9 6  
Month to date cooling degree days 44 81  
Year to date cooling degree days 3839 3447  
Growing Degree Days 23 (Base 50)    
Moisture  
Dew Point 62 °F    
Average Humidity 65    
Maximum Humidity 87    
Minimum Humidity 43    
Precipitation  
Precipitation 0.08 in 0.05 in 0.89 in (1904)
Month to date precipitation 0.16 0.62  
Year to date precipitation 53.79 42.90  
Sea Level Pressure  
Sea Level Pressure 30.20 in    
Wind  
Wind Speed 3 mph (NE)    
Max Wind Speed 12 mph    
Max Gust Speed 18 mph    
Visibility 10 miles    
Events Rain    
T = Trace of Precipitation, MM = Missing Value Source: NWS Daily Summary

Daily Weather History Graph

Daily Weather History Graph

Search for Another Location

Airport:

Trip Planner

Search our weather history database for the weather conditions in past years. The results will help you decide how hot, cold, wet, or windy it might be!

Date:

Astronomy

Nov. 12, 2012 Rise Set
Actual Time 6:49 AM EST 5:38 PM EST
Civil Twilight 6:25 AM EST 6:03 PM EST
Nautical Twilight 5:56 AM EST 6:31 PM EST
Astronomical Twilight 5:28 AM EST 6:59 PM EST
Moon 5:18 AM EST (11/12) 4:40 PM EST (11/12)
Length of Visible Light 11h 38m
Length of Day
10h 48m
Waning Crescent, 2% of the Moon is Illuminated
Nov 12
Waning Crescent
Nov 13
New
Nov 20
First Quarter
Nov 28
Full
Dec 6
Last Quarter

Hourly Weather History & Observations

Time (EST) Temp. Heat Index Dew Point Humidity Pressure Visibility Wind Dir Wind Speed Gust Speed Precip Events Conditions
12:53 AM 66.0 °F - 60.1 °F 81% 30.23 in 10.0 mi ENE 3.5 mph - N/A   Scattered Clouds
1:53 AM 66.2 °F - 60.8 °F 83% 30.23 in 10.0 mi NE 3.5 mph - N/A   Mostly Cloudy
2:53 AM 64.9 °F - 60.1 °F 84% 30.22 in 10.0 mi NE 3.5 mph - N/A   Scattered Clouds
3:53 AM 64.0 °F - 60.1 °F 87% 30.21 in 10.0 mi ENE 3.5 mph - N/A   Scattered Clouds
4:53 AM 64.0 °F - 60.1 °F 87% 30.20 in 10.0 mi Calm Calm - N/A   Partly Cloudy
5:53 AM 64.0 °F - 60.1 °F 87% 30.21 in 10.0 mi Calm Calm - N/A   Scattered Clouds
6:53 AM 64.0 °F - 60.1 °F 87% 30.22 in 10.0 mi NE 3.5 mph - N/A   Mostly Cloudy
7:53 AM 66.0 °F - 62.1 °F 87% 30.24 in 10.0 mi Calm Calm - N/A   Scattered Clouds
8:53 AM 70.0 °F - 63.0 °F 78% 30.25 in 10.0 mi Variable 3.5 mph - N/A   Scattered Clouds
9:53 AM 75.9 °F - 64.0 °F 67% 30.26 in 10.0 mi ESE 5.8 mph - N/A   Scattered Clouds
10:53 AM 78.1 °F - 64.0 °F 62% 30.25 in 10.0 mi Variable 4.6 mph - N/A   Scattered Clouds
11:53 AM 80.1 °F 81.2 °F 62.1 °F 54% 30.22 in 10.0 mi Variable 5.8 mph - N/A   Scattered Clouds
12:53 PM 81.0 °F 81.3 °F 59.0 °F 47% 30.19 in 10.0 mi Variable 5.8 mph - N/A   Mostly Cloudy
1:53 PM 82.9 °F 82.8 °F 59.0 °F 44% 30.18 in 10.0 mi Variable 3.5 mph - N/A   Mostly Cloudy
2:53 PM 82.0 °F 82.0 °F 57.9 °F 44% 30.16 in 10.0 mi NE 4.6 mph - N/A   Overcast
3:53 PM 82.0 °F 82.4 °F 60.1 °F 47% 30.16 in 10.0 mi Calm Calm - N/A   Mostly Cloudy
4:53 PM 80.1 °F 80.9 °F 60.1 °F 50% 30.16 in 10.0 mi NE 4.6 mph - N/A   Overcast
5:53 PM 75.9 °F - 63.0 °F 64% 30.16 in 10.0 mi NW 8.1 mph - N/A   Mostly Cloudy
6:53 PM 75.0 °F - 63.0 °F 66% 30.18 in 10.0 mi North 6.9 mph - N/A   Overcast
7:53 PM 72.0 °F - 66.0 °F 81% 30.19 in 7.0 mi Calm Calm - 0.08 in Rain Light Rain
8:53 PM 73.0 °F - 66.9 °F 81% 30.20 in 10.0 mi Calm Calm - 0.00 in   Mostly Cloudy
9:53 PM 72.0 °F - 66.0 °F 81% 30.20 in 10.0 mi Calm Calm - N/A   Mostly Cloudy
10:53 PM 71.1 °F - 66.0 °F 84% 30.19 in 10.0 mi Calm Calm - N/A   Scattered Clouds
11:53 PM 70.0 °F - 66.0 °F 87% 30.18 in 10.0 mi Calm Calm - N/A   Mostly Cloudy